Ana Sayfa
METAR-TAF:

METAR-TAF

Havaalanları :

Mount Gambier, Avustralya

Enlem: 37-44-44S, Boylam: 140-47-07E, yükseklik: 65 m

Güncel hava durumu gözlemi

Rapor saat 08:00 UTC de 59 dakika önce yapıldı.
Rüzgar güneydan 11 kt
Sıcaklık 17°C
Nem 59%
Basınç 1018 hPa
Görüş mesafesi 10 km veya daha fazla

METAR: YMTG 070800Z AUTO 18011KT 9999 // NCD 17/09 Q1018

Saat: 19:29 (08:59 UTC)


TAF: eksik

4.000'den fazla havaalanı için hava durumu gözlemleri ve tahminleri (METAR ve TAF raporları).

Kullanılabilir istasyonlar harita üzerinde sarı ve kırmızı noktalarla gösterilir.

İstasyonun adını görmek için fareyi noktanın üzerinde gezdirin.

Sonrasında hava gözlem ve tahminlerini görmek için tıklayın.

Haritayı değiştirmek için: yaklaştırmak için siyah artı işaretli yeşil düğmeye ve uzaklaştırmak için de eksi işaretli düğmeye hızla tıklayın; bitişik haritalar için yeşil okları kullanın.


METAR-TAF: